Regional Weather Roundup
Issued by NWS

Home | Current Version | Previous Version | Text Only | Print | Product List | Glossary Off
Versions: 1 2 3 4 5 6 7 8 9 10 11 12 13 14 15 16 17 18 19 20 21 22 23 24 25 26 27 28 29 30 31 32 33 34 35 36 37 38 39 40 41 42 43 44 45 46 47 48 49 50

070
ASUS45 KSLC 260610
RWRUT

UTAH REGIONAL WEATHER ROUNDUP
NATIONAL WEATHER SERVICE SALT LAKE CITY UT
1200 AM MDT SUN MAR 26 2017

UTZ001>011-023>025-260700-

NORTHERN UTAH

CITY           SKY/WX    TMP DP  RH WIND       PRES   REMARKS
BRIGHAM CITY     N/A     41  37  86 SE3       30.04F
HILL AFB       MOCLDY    38  36  94 E3        30.03S
LOGAN          PTCLDY    41  36  82 S3        30.02F
OGDEN          MOCLDY    36  36 100 S3        30.03S
SALT LAKE CITY MOCLDY    40  38  93 CALM      30.02F
WENDOVER       CLEAR     44  30  57 NE3       30.03R
HEBER CITY     CLOUDY    37  34  87 CALM      30.00S

$$

UTZ011>015-024>027-260700-

CENTRAL/NORTHEAST UTAH

CITY           SKY/WX    TMP DP  RH WIND       PRES   REMARKS
PROVO AIRPORT  CLOUDY    42  38  85 CALM      30.04S
MOAB/CANYONLAN CLOUDY    45  42  89 NW7       29.87R
DELTA          MOCLDY    37  36  93 W5        30.04S WCI  34
PRICE          CLEAR     39  30  70 NW12      29.93S WCI  32
ROOSEVELT      CLOUDY    45  37  76 N3        29.92S
VERNAL         CLOUDY    44  35  70 NE5       29.90F

$$

UTZ013>016-019>022-027-260700-

SOUTHERN UTAH

CITY           SKY/WX    TMP DP  RH WIND       PRES   REMARKS
BRYCE CANYON   MOCLDY    32  29  88 W12       30.01R WCI  23
CEDAR CITY     CLOUDY    35  33  92 NW6       30.03S WCI  30
MILFORD        CLEAR     36  35  96 NW7       30.04F WCI  30
ST GEORGE      CLOUDY    44  38  79 SE7       30.01S
HANKSVILLE     CLOUDY    48  37  66 SW6       29.93R
BLANDING       CLOUDY    41  37  85 CALM      30.00F

$$

REGIONAL REPORTS     COLORADO/ARIZONA

CITY           SKY/WX    TMP DP  RH WIND       PRES   REMARKS
CRAIG, CO      CLOUDY    43  34  70 W5        29.92S
GRAND JUNCTION CLOUDY    48  35  60 N9        29.86F
RIFLE, CO      CLOUDY    41  35  79 W3        29.90R
MONTROSE, CO   CLOUDY    45  38  76 S7        29.92F
CORTEZ, CO     CLOUDY    40  36  86 E3        29.96S
COLORADO CITY    N/A     41  36  81 N3        30.03F
PAGE, AZ       CLOUDY    51  38  60 W12       29.93S
GRAND CANYON   CLEAR     37  30  75 VRB5      30.02S WCI  33
KINGMAN, AZ    CLEAR     48  29  47 E10       29.99F
FLAGSTAFF, AZ  CLEAR     36  29  75 W5        30.04R WCI  32

$$

REGIONAL REPORTS    NEVADA/IDAHO/WYOMING

CITY           SKY/WX    TMP DP  RH WIND       PRES   REMARKS
LAS VEGAS, NV  PTCLDY    62  34  35 NE3       29.96R
ELY, NY        PTCLDY    29  27  92 S3        30.05S
ELKO, NV       CLEAR     34  28  79 CALM      30.04R
POCATELLO, ID  CLEAR     40  28  62 SW10      30.00S WCI  33
BURLEY, ID     CLEAR     36  28  73 SW12      30.01R WCI  28
FORT BRIDGER,  CLOUDY    34  32  93 W13       30.02S WCI  25
EVANSTON, WY   CLOUDY    32  28  85 NW3       30.02R
ROCK SPRINGS,  CLOUDY    37  33  85 NW9       29.94R WCI  30
KEMMERER, WY     N/A     32  27  80 NW13G18   30.00S WCI  22

$$




USA.gov is the U.S. government's official web portal to all federal, state and local government web resources and services.